Simultaneous Nadir Overpasses (SNOs) Predictions

Prediction of SNOs between GOES-17 and METOP-B Satellite Orbit:

Table of predicted SNOs for the next 14.0 days since TLE Epoch: 10/8/2022
Index Date Time (GOES-17) GOES-17 Lat,Lon METOP-B Lat,Lon Distance(km) Time Diff (sec)
1 10/10/2022 06:37:45 0.06,-137.31 0.04,-137.28 3.86 80
2 10/12/2022 18:38:39 -0.06,-137.29 -0.14,-136.85 50.47 80
3 10/14/2022 06:57:40 0.06,-137.28 -0.89,-141.44 475.48 80
4 10/15/2022 06:37:02 0.05,-137.26 0.24,-136.45 92.21 80
5 10/16/2022 18:53:14 -0.05,-137.24 0.78,-141.01 429.58 80
6 10/17/2022 18:35:14 -0.05,-137.23 -0.29,-136.01 137.84 80
7 10/19/2022 06:54:16 0.04,-137.20 -0.73,-140.61 389.00 80
8 10/20/2022 06:30:57 0.04,-137.18 0.41,-135.62 178.12 80
9 10/21/2022 18:49:48 -0.04,-137.15 0.66,-140.17 344.59 80
